Home   Weather   Downey   Past weeks

Flag for USA Past Weather in Downey, California, USA — Yesterday and Last 2 Weeks

Now
54 °F

Mostly cloudy.


Feels Like: 54 °F
Forecast: 51 / 63 °F
Wind: 3 mph from East

Location: Long Beach Airport

Current Time: Dec 6, 2016 at 2:19:19 am

Latest Report: Dec 6, 2016 at 2:03 am


Visibility: 8 mi

Pressure: 29.97 "Hg

Humidity: 90%

Dew Point: 51 °F

Location of DowneyLocation

Past Weather in Downey — Graph

°F

Downey Temperature Yesterday

Maximum temperature yesterday: 63 °F (at 11:53 am)
Minimum temperature yesterday: 49 °F (at 4:53 am)
Average temperature yesterday: 55 °F

High & Low Weather Summary for the Past Weeks

 TemperatureHumidityPressure
High82 °F (Nov 24, 1:53 pm)96% (Nov 21, 12:57 am)30.17 "Hg (Nov 21, 12:57 am)
Low44 °F (Dec 3, 6:53 am)8% (Dec 3, 2:53 pm)29.82 "Hg (Nov 28, 3:53 pm)
Average57 °F63%30.02 "Hg
* Reported Nov 21 12:57 am — Dec 6 12:53 am, Downey, Weather by CustomWeather, © 2016

Note: Actual official high and low records may vary slightly from our data, if they occured in-between our weather recording intervals... More about our weather records

Advertising

Downey Weather History for the Previous 24 Hours

Scroll right to see more
 ConditionsComfort  
Time TempWeatherWind HumidityBarometerVisibility
12:53 am
Tue, Dec 6
55 °FOvercast.No wind87%29.97 "Hg8 mi
11:53 pm
Mon, Dec 5
55 °FMostly cloudy.3 mph87%29.98 "Hg8 mi
10:53 pm54 °FFog.No wind90%29.97 "Hg6 mi
9:53 pm55 °FFog.No wind90%29.96 "Hg6 mi
8:53 pm54 °FMostly cloudy.No wind90%29.95 "Hg7 mi
7:53 pm56 °FClear.No wind87%29.95 "Hg7 mi
6:53 pm57 °FClear.No wind83%29.93 "Hg9 mi
5:53 pm59 °FClear.3 mph81%29.93 "Hg9 mi
4:53 pm59 °FClear.7 mph78%29.92 "Hg10 mi
3:53 pm61 °FSunny.8 mph75%29.92 "Hg10 mi
2:53 pm62 °FSunny.7 mph73%29.91 "Hg10 mi
1:53 pm63 °FSunny.8 mph70%29.91 "Hg10 mi
12:53 pm63 °FSunny.No wind68%29.92 "Hg10 mi
11:53 am63 °FPartly sunny.No wind68%29.95 "Hg8 mi
10:53 am62 °FPartly sunny.No wind70%29.97 "Hg7 mi
9:53 am59 °FOvercast.3 mph69%29.99 "Hg7 mi
8:53 am54 °FScattered clouds.5 mph74%29.97 "Hg8 mi
7:53 am53 °FPartly sunny.No wind72%29.98 "Hg7 mi
6:53 am51 °FPartly sunny.No wind80%29.96 "Hg9 mi
5:53 am51 °FPassing clouds.No wind83%29.95 "Hg10 mi
4:53 am49 °FLow clouds.No wind90%29.94 "Hg9 mi
3:53 am50 °FPassing clouds.No wind86%29.94 "Hg10 mi
3:04 am50 °FPassing clouds.No wind89%29.96 "Hg9 mi
2:53 am50 °FPassing clouds.No wind86%29.95 "Hg9 mi
2:04 am50 °FFog.No wind89%29.96 "Hg6 mi
Weather by CustomWeather, © 2016

See weather overviewHow to use our weather pages